This demonstration page uses our WeatherBlox Daily Observations layout. Learn more.

Left ArrowRight Arrow

44.8408, -93.29828

Hourly Observations for April 16, 2017

Temp ( °F °C ) Dew Point ( °F °C ) Humidity (%) Winds ( mph kmh ) Pressure ( in mb ) Visibility ( mi km ) Precip ( " mm )
12:53 am 00:53 Mostly Cloudy 53 11.7 47 8.3 80 80 WNW 12 19 29.87 1012 10 16 0.00 0.00
1:53 am 01:53 Mostly Clear 52 11.1 46 7.8 80 80 W 12 19 29.88 1012 10 16 0.00 0.00
2:53 am 02:53 Clear 51 10.6 45 7.2 80 80 W 12 19 29.88 1012 10 16 0.00 0.00
3:53 am 03:53 Clear 50 10 41 5 71 71 W 12 19 29.90 1013 10 16 0.00 0.00
4:53 am 04:53 Clear 49 9.4 38 3.3 66 66 W 12 19 29.91 1013 10 16 0.00 0.00
5:53 am 05:53 Clear 48 8.9 38 3.3 68 68 WNW 17 28 29.93 1014 10 16 0.00 0.00
6:53 am 06:53 Sunny 48 8.9 38 3.3 68 68 W 9 15 29.95 1014 10 16 0.00 0.00
7:53 am 07:53 Sunny 50 10 38 3.3 63 63 WNW 12 19 29.98 1015 10 16 0.00 0.00
8:53 am 08:53 Sunny 53 11.7 38 3.3 57 57 WNW 15 24 29.99 1016 10 16 0.00 0.00
9:53 am 09:53 Sunny 56 13.3 38 3.3 51 51 WNW 15 24 30.01 1016 10 16 0.00 0.00
10:53 am 10:53 Sunny 57 13.9 38 3.3 49 49 W 17 28 30.04 1017 10 16 0.00 0.00
11:53 am 11:53 Mostly Sunny 60 15.6 36 2.2 41 41 W 17 28 30.06 1018 10 16 0.00 0.00
12:53 pm 12:53 Mostly Sunny 62 16.7 37 2.8 40 40 W 17 28 30.06 1018 10 16 0.00 0.00
1:53 pm 13:53 Partly Cloudy 62 16.7 33 0.6 34 34 W 17 28 30.05 1018 10 16 0.00 0.00
2:53 pm 14:53 Mostly Cloudy 64 17.8 30 -1.1 28 28 W 17 28 30.05 1018 10 16 0.00 0.00
3:53 pm 15:53 Partly Cloudy 66 18.9 29 -1.7 25 25 W 17 28 30.04 1017 10 16 0.00 0.00
4:53 pm 16:53 Partly Cloudy 65 18.3 24 -4.4 21 21 W 17 28 30.04 1017 10 16 0.00 0.00
5:53 pm 17:53 Partly Cloudy 65 18.3 24 -4.4 21 21 W 17 28 30.04 1017 10 16 0.00 0.00
6:53 pm 18:53 Partly Cloudy 64 17.8 25 -3.9 23 23 W 17 28 30.05 1018 10 16 0.00 0.00
7:53 pm 19:53 Mostly Sunny 61 16.1 25 -3.9 25 25 W 17 28 30.04 1017 10 16 0.00 0.00
8:53 pm 20:53 Mostly Clear 58 14.4 27 -2.8 31 31 W 12 19 30.06 1018 10 16 0.00 0.00
9:53 pm 21:53 Partly Cloudy 57 13.9 29 -1.7 34 34 W 6 9 30.08 1019 10 16 0.00 0.00
10:53 pm 22:53 Partly Cloudy 53 11.7 32 0 45 45 WNW 6 9 30.09 1019 10 16 0.00 0.00
11:53 pm 23:53 Mostly Cloudy 56 13.3 31 -0.6 39 39 WNW 8 13 30.11 1020 10 16 0.00 0.00

Powered by AerisWeather